| time (UTC) | temp F | wind direction | speed knots | gust knots | rain 1hr in | rain 24hr in | rain mn in | humidity % | barometer mb |
| 20260505014026 | 60 | 288 | 0.0 | 2.6 | 0.00 | 0.00 | 0.00 | 51 | 1009.3 |
| 20260505013526 | 60 | 279 | 0.0 | 6.1 | 0.00 | 0.00 | 0.00 | 51 | 1009.3 |
| 20260505013046 | 60 | 292 | 0.9 | 6.1 | 0.00 | 0.00 | 0.00 | 50 | 1009.2 |
| 20260505012527 | 60 | 195 | 0.9 | 6.1 | 0.00 | 0.00 | 0.00 | 50 | 1009.1 |
| 20260505012023 | 61 | 284 | 0.0 | 6.1 | 0.00 | 0.00 | 0.00 | 50 | 1009.0 |
| 20260505011545 | 61 | 141 | 0.9 | 6.1 | 0.00 | 0.00 | 0.00 | 49 | 1008.9 |
| 20260505011027 | 61 | 261 | 0.9 | 6.1 | 0.00 | 0.00 | 0.00 | 50 | 1008.8 |
| 20260505010525 | 61 | 314 | 0.9 | 6.1 | 0.00 | 0.00 | 0.00 | 49 | 1008.8 |
| 20260505010051 | 61 | 251 | 0.0 | 7.0 | 0.00 | 0.00 | 0.00 | 49 | 1008.7 |
| 20260505005529 | 61 | 139 | 0.9 | 7.0 | 0.00 | 0.00 | 0.00 | 49 | 1008.6 |
| 20260505005026 | 62 | 271 | 0.9 | 6.1 | 0.00 | 0.00 | 0.00 | 48 | 1008.4 |
| 20260505004547 | 62 | 279 | 0.9 | 6.1 | 0.00 | 0.00 | 0.00 | 48 | 1008.2 |
| 20260505004026 | 62 | 154 | 0.0 | 6.1 | 0.00 | 0.00 | 0.00 | 48 | 1008.0 |
| 20260505003523 | 62 | 250 | 0.9 | 8.7 | 0.00 | 0.00 | 0.00 | 46 | 1007.9 |
| 20260505003053 | 63 | 169 | 0.9 | 8.7 | 0.00 | 0.00 | 0.00 | 47 | 1007.7 |
| 20260505002523 | 63 | 89 | 0.9 | 6.1 | 0.00 | 0.00 | 0.00 | 46 | 1007.6 |
| 20260505002023 | 63 | 79 | 0.9 | 6.1 | 0.00 | 0.00 | 0.00 | 45 | 1007.5 |
| 20260505001537 | 63 | 297 | 1.7 | 6.1 | 0.00 | 0.00 | 0.00 | 45 | 1007.4 |
| 20260505001027 | 63 | 288 | 1.7 | 7.8 | 0.00 | 0.00 | 0.00 | 45 | 1007.4 |
| 20260505000523 | 64 | 141 | 0.9 | 7.8 | 0.00 | 0.00 | 0.00 | 44 | 1007.2 |
| 20260505000046 | 64 | 281 | 1.7 | 7.8 | 0.00 | 0.00 | 0.00 | 44 | 1007.2 |
| 20260504235523 | 64 | 108 | 0.9 | 7.0 | 0.00 | 0.00 | 0.00 | 44 | 1007.1 |
| 20260504235027 | 65 | 250 | 0.9 | 7.0 | 0.00 | 0.00 | 0.00 | 43 | 1007.0 |
| 20260504234543 | 65 | 162 | 0.9 | 5.2 | 0.00 | 0.00 | 0.00 | 42 | 1006.9 |
| 20260504234026 | 65 | 273 | 1.7 | 4.3 | 0.00 | 0.00 | 0.00 | 41 | 1006.7 |
| 20260504233524 | 66 | 212 | 1.7 | 7.0 | 0.00 | 0.00 | 0.00 | 41 | 1006.6 |
| 20260504233038 | 66 | 269 | 0.9 | 7.0 | 0.00 | 0.00 | 0.00 | 39 | 1006.6 |
| 20260504232527 | 67 | 269 | 1.7 | 7.0 | 0.00 | 0.00 | 0.00 | 38 | 1006.5 |
| 20260504232025 | 67 | 0 | 1.7 | 5.2 | 0.00 | 0.00 | 0.00 | 37 | 1006.4 |
| 20260504231537 | 67 | 197 | 0.9 | 3.5 | 0.00 | 0.00 | 0.00 | 35 | 1006.2 |
| 20260504231025 | 68 | 99 | 0.0 | 3.5 | 0.00 | 0.00 | 0.00 | 35 | 1006.2 |
| 20260504230524 | 68 | 210 | 0.9 | 5.2 | 0.00 | 0.00 | 0.00 | 35 | 1006.1 |
| 20260504230038 | 68 | 267 | 0.9 | 5.2 | 0.00 | 0.00 | 0.00 | 35 | 1006.1 |
| 20260504225523 | 68 | 259 | 0.9 | 3.5 | 0.00 | 0.00 | 0.00 | 34 | 1006.0 |
| 20260504225024 | 69 | 0 | 0.0 | 4.3 | 0.00 | 0.00 | 0.00 | 34 | 1005.9 |
| 20260504224538 | 69 | 79 | 0.9 | 4.3 | 0.00 | 0.00 | 0.00 | 33 | 1005.9 |
| 20260504224027 | 69 | 259 | 0.9 | 4.3 | 0.00 | 0.00 | 0.00 | 33 | 1005.8 |
| 20260504223527 | 69 | 0 | 0.9 | 4.3 | 0.00 | 0.00 | 0.00 | 33 | 1005.8 |
| 20260504223057 | 70 | 0 | 0.9 | 6.1 | 0.00 | 0.00 | 0.00 | 34 | 1005.8 |
| 20260504222527 | 70 | 0 | 0.9 | 7.0 | 0.00 | 0.00 | 0.00 | 33 | 1005.8 |
| 20260504222023 | 70 | 195 | 1.7 | 7.0 | 0.00 | 0.00 | 0.00 | 32 | 1005.8 |
| 20260504221537 | 70 | 135 | 1.7 | 5.2 | 0.00 | 0.00 | 0.00 | 33 | 1005.9 |
| 20260504221027 | 70 | 142 | 0.9 | 5.2 | 0.00 | 0.00 | 0.00 | 33 | 1005.8 |
| 20260504220525 | 70 | 215 | 0.9 | 6.1 | 0.00 | 0.00 | 0.00 | 33 | 1005.8 |
| 20260504220039 | 70 | 153 | 0.9 | 6.1 | 0.00 | 0.00 | 0.00 | 33 | 1005.8 |
| 20260504215524 | 70 | 232 | 1.7 | 5.2 | 0.00 | 0.00 | 0.00 | 32 | 1005.9 |
| 20260504215026 | 71 | 173 | 0.9 | 7.0 | 0.00 | 0.00 | 0.00 | 33 | 1005.9 |
| 20260504214537 | 71 | 259 | 1.7 | 7.0 | 0.00 | 0.00 | 0.00 | 32 | 1005.9 |
| 20260504214027 | 71 | 277 | 1.7 | 4.3 | 0.00 | 0.00 | 0.00 | 32 | 1005.8 |
| 20260504213523 | 71 | 350 | 0.9 | 5.2 | 0.00 | 0.00 | 0.00 | 32 | 1005.8 |
| 20260504213043 | 71 | 94 | 1.7 | 7.0 | 0.00 | 0.00 | 0.00 | 32 | 1005.8 |
| 20260504212526 | 71 | 286 | 1.7 | 7.0 | 0.00 | 0.00 | 0.00 | 31 | 1005.8 |
| 20260504212024 | 71 | 20 | 0.9 | 5.2 | 0.00 | 0.00 | 0.00 | 32 | 1005.8 |
| 20260504211613 | 71 | 285 | 1.7 | 5.2 | 0.00 | 0.00 | 0.00 | 31 | 1005.9 |
| 20260504211025 | 71 | 274 | 1.7 | 7.0 | 0.00 | 0.00 | 0.00 | 31 | 1005.8 |
| 20260504210529 | 71 | 160 | 0.9 | 7.0 | 0.00 | 0.00 | 0.00 | 31 | 1005.7 |
| 20260504210046 | 71 | 290 | 1.7 | 7.0 | 0.00 | 0.00 | 0.00 | 31 | 1005.8 |
| 20260504205525 | 71 | 228 | 0.0 | 4.3 | 0.00 | 0.00 | 0.00 | 31 | 1005.8 |
| 20260504205023 | 72 | 181 | 0.9 | 6.1 | 0.00 | 0.00 | 0.00 | 29 | 1005.8 |
| 20260504204538 | 72 | 203 | 1.7 | 6.1 | 0.00 | 0.00 | 0.00 | 32 | 1005.8 |
| 20260504204023 | 72 | 304 | 1.7 | 5.2 | 0.00 | 0.00 | 0.00 | 29 | 1005.8 |
| 20260504203524 | 73 | 181 | 0.9 | 5.2 | 0.00 | 0.00 | 0.00 | 30 | 1005.7 |
| 20260504203037 | 72 | 287 | 0.9 | 6.1 | 0.00 | 0.00 | 0.00 | 30 | 1005.8 |
| 20260504202527 | 73 | 136 | 2.6 | 6.1 | 0.00 | 0.00 | 0.00 | 30 | 1005.8 |
| 20260504202024 | 73 | 287 | 1.7 | 5.2 | 0.00 | 0.00 | 0.00 | 29 | 1005.7 |
| 20260504201534 | 73 | 143 | 0.9 | 6.1 | 0.00 | 0.00 | 0.00 | 28 | 1005.7 |
| 20260504201026 | 72 | 93 | 0.9 | 7.0 | 0.00 | 0.00 | 0.00 | 30 | 1005.7 |
| 20260504200527 | 72 | 254 | 1.7 | 7.8 | 0.00 | 0.00 | 0.00 | 29 | 1005.7 |
| 20260504200044 | 72 | 158 | 2.6 | 7.8 | 0.00 | 0.00 | 0.00 | 29 | 1005.8 |
| 20260504195526 | 73 | 108 | 1.7 | 6.1 | 0.00 | 0.00 | 0.00 | 29 | 1005.8 |
| 20260504195027 | 73 | 295 | 1.7 | 7.0 | 0.00 | 0.00 | 0.00 | 28 | 1005.8 |
| 20260504194548 | 73 | 288 | 1.7 | 7.0 | 0.00 | 0.00 | 0.00 | 27 | 1005.9 |
| 20260504194024 | 73 | 77 | 2.6 | 7.0 | 0.00 | 0.00 | 0.00 | 27 | 1005.9 |
| 20260504193526 | 73 | 195 | 1.7 | 6.1 | 0.00 | 0.00 | 0.00 | 29 | 1005.8 |
| 20260504193038 | 72 | 257 | 2.6 | 9.6 | 0.00 | 0.00 | 0.00 | 28 | 1005.8 |
| 20260504192526 | 72 | 140 | 1.7 | 15.6 | 0.00 | 0.00 | 0.00 | 28 | 1005.8 |
| 20260504192024 | 73 | 291 | 3.5 | 15.6 | 0.00 | 0.00 | 0.00 | 27 | 1005.9 |
| 20260504191542 | 73 | 158 | 3.5 | 11.3 | 0.00 | 0.00 | 0.00 | 28 | 1005.7 |
| 20260504191025 | 73 | 150 | 0.9 | 7.0 | 0.00 | 0.00 | 0.00 | 29 | 1005.8 |
| 20260504190526 | 72 | 59 | 1.7 | 10.4 | 0.00 | 0.00 | 0.00 | 29 | 1005.8 |
| 20260504190044 | 72 | 101 | 3.5 | 10.4 | 0.00 | 0.00 | 0.00 | 28 | 1005.9 |
| 20260504185524 | 72 | 121 | 2.6 | 10.4 | 0.00 | 0.00 | 0.00 | 28 | 1006.3 |
| 20260504185024 | 72 | 152 | 2.6 | 13.0 | 0.00 | 0.00 | 0.00 | 29 | 1006.2 |
| 20260504184548 | 72 | 160 | 3.5 | 13.0 | 0.00 | 0.00 | 0.00 | 28 | 1006.3 |
| 20260504184026 | 73 | 142 | 1.7 | 7.8 | 0.00 | 0.00 | 0.00 | 28 | 1006.4 |
| 20260504183524 | 72 | 115 | 1.7 | 7.0 | 0.00 | 0.00 | 0.00 | 31 | 1006.4 |
| 20260504183040 | 72 | 186 | 1.7 | 7.0 | 0.00 | 0.00 | 0.00 | 31 | 1006.5 |
| 20260504182526 | 72 | 233 | 2.6 | 7.0 | 0.00 | 0.00 | 0.00 | 32 | 1006.6 |
| 20260504182027 | 72 | 160 | 1.7 | 13.0 | 0.00 | 0.00 | 0.00 | 31 | 1006.6 |
| 20260504181538 | 72 | 293 | 2.6 | 13.0 | 0.00 | 0.00 | 0.00 | 27 | 1006.4 |
| 20260504181026 | 71 | 287 | 2.6 | 13.0 | 0.00 | 0.00 | 0.00 | 28 | 1006.4 |
| 20260504180525 | 71 | 73 | 2.6 | 14.8 | 0.00 | 0.00 | 0.00 | 29 | 1006.4 |
| 20260504180039 | 71 | 249 | 3.5 | 14.8 | 0.00 | 0.00 | 0.00 | 29 | 1006.6 |
| 20260504175528 | 72 | 280 | 2.6 | 9.6 | 0.00 | 0.00 | 0.00 | 30 | 1006.6 |
| 20260504175029 | 72 | 110 | 1.7 | 11.3 | 0.00 | 0.00 | 0.00 | 29 | 1006.6 |
| 20260504174540 | 72 | 79 | 1.7 | 11.3 | 0.00 | 0.00 | 0.00 | 29 | 1007.0 |
| 20260504174024 | 72 | 201 | 2.6 | 9.6 | 0.00 | 0.00 | 0.00 | 28 | 1006.8 |
| 20260504173526 | 72 | 255 | 2.6 | 9.6 | 0.00 | 0.00 | 0.00 | 30 | 1006.8 |
| 20260504173042 | 72 | 80 | 0.9 | 7.8 | 0.00 | 0.00 | 0.00 | 33 | 1006.8 |
| 20260504172525 | 71 | 315 | 2.6 | 7.8 | 0.00 | 0.00 | 0.00 | 31 | 1006.9 |
| 20260504172025 | 71 | 188 | 3.5 | 11.3 | 0.00 | 0.00 | 0.00 | 31 | 1006.9 |
| 20260504171540 | 70 | 170 | 2.6 | 11.3 | 0.00 | 0.00 | 0.00 | 30 | 1006.9 |
| 20260504171025 | 71 | 166 | 3.5 | 11.3 | 0.00 | 0.00 | 0.00 | 31 | 1007.0 |
| 20260504170524 | 71 | 238 | 2.6 | 10.4 | 0.00 | 0.00 | 0.00 | 33 | 1007.0 |
| 20260504151029 | 68 | 290 | 2.6 | 8.7 | 0.00 | 0.00 | 0.00 | 33 | 1008.5 |
| 20260504150526 | 68 | 62 | 2.6 | 14.8 | 0.00 | 0.00 | 0.00 | 34 | 1008.4 |
| 20260504141024 | 64 | 237 | 2.6 | 10.4 | 0.00 | 0.00 | 0.00 | 38 | 1008.8 |
| 20260504140527 | 64 | 53 | 2.6 | 10.4 | 0.00 | 0.00 | 0.00 | 37 | 1008.9 |
| 20260504130528 | 60 | 209 | 1.7 | 5.2 | 0.00 | 0.00 | 0.00 | 42 | 1009.6 |
| 20260504110528 | 49 | 174 | 0.0 | 0.9 | 0.00 | 0.02 | 0.00 | 60 | 1009.7 |
| 20260504100527 | 44 | 0 | 0.0 | 0.0 | 0.00 | 0.02 | 0.00 | 65 | 1009.7 |
| 20260504081539 | 43 | 0 | 0.0 | 0.9 | 0.00 | 0.02 | 0.00 | 66 | 1009.8 |
| 20260504081026 | 43 | 0 | 0.0 | 0.9 | 0.00 | 0.02 | 0.00 | 65 | 1009.8 |
| 20260504080528 | 43 | 0 | 0.0 | 1.7 | 0.00 | 0.02 | 0.00 | 65 | 1009.8 |
| 20260504050525 | 37 | 205 | 0.0 | 1.7 | 0.00 | 0.02 | 0.00 | 77 | 1009.7 |
| 20260504045524 | 35 | 0 | 0.0 | 0.9 | 0.00 | 0.02 | 0.00 | 79 | 1009.6 |
| 20260504045024 | 35 | 0 | 0.0 | 0.9 | 0.00 | 0.02 | 0.00 | 80 | 1009.6 |
| 20260504044537 | 35 | 0 | 0.0 | 0.0 | 0.00 | 0.02 | 0.00 | 80 | 1009.7 |
| 20260504044024 | 35 | 0 | 0.0 | 0.0 | 0.00 | 0.02 | 0.00 | 80 | 1009.6 |
| 20260504043525 | 35 | 0 | 0.0 | 0.0 | 0.00 | 0.02 | 0.00 | 79 | 1009.7 |
| 20260504043044 | 35 | 0 | 0.0 | 0.9 | 0.00 | 0.02 | 0.00 | 78 | 1009.7 |
| 20260504042524 | 36 | 0 | 0.0 | 0.9 | 0.00 | 0.02 | 0.00 | 78 | 1009.6 |
| 20260504042028 | 36 | 0 | 0.0 | 0.9 | 0.00 | 0.02 | 0.00 | 77 | 1009.8 |
| 20260504041541 | 36 | 0 | 0.0 | 0.9 | 0.00 | 0.02 | 0.00 | 76 | 1009.7 |
| 20260504041024 | 37 | 0 | 0.0 | 0.9 | 0.00 | 0.02 | 0.00 | 75 | 1009.7 |
| 20260504040526 | 37 | 0 | 0.0 | 0.9 | 0.00 | 0.02 | 0.00 | 74 | 1009.7 |
| 20260504040042 | 37 | 0 | 0.0 | 0.9 | 0.00 | 0.02 | 0.00 | 74 | 1009.6 |
| 20260504035525 | 38 | 0 | 0.0 | 0.9 | 0.00 | 0.02 | 0.02 | 74 | 1009.6 |
| 20260504035024 | 38 | 0 | 0.0 | 0.9 | 0.00 | 0.02 | 0.02 | 73 | 1009.6 |
| 20260504034537 | 37 | 240 | 0.0 | 0.9 | 0.00 | 0.02 | 0.02 | 74 | 1009.5 |
| 20260504034030 | 37 | 0 | 0.0 | 0.0 | 0.00 | 0.02 | 0.02 | 74 | 1009.6 |
| 20260504033524 | 37 | 0 | 0.0 | 0.0 | 0.00 | 0.02 | 0.02 | 74 | 1009.5 |
| 20260504033049 | 37 | 0 | 0.0 | 0.9 | 0.00 | 0.02 | 0.02 | 74 | 1009.5 |
| 20260504032525 | 37 | 0 | 0.0 | 0.9 | 0.00 | 0.02 | 0.02 | 74 | 1009.5 |
| 20260504032027 | 37 | 240 | 0.0 | 0.0 | 0.00 | 0.02 | 0.02 | 75 | 1009.5 |
| 20260504031554 | 37 | 0 | 0.0 | 0.0 | 0.00 | 0.02 | 0.02 | 76 | 1009.5 |
| 20260504031026 | 37 | 0 | 0.0 | 0.9 | 0.00 | 0.02 | 0.02 | 75 | 1009.5 |
| 20260504030527 | 38 | 0 | 0.0 | 0.9 | 0.00 | 0.02 | 0.02 | 73 | 1009.6 |
| 20260504030043 | 38 | 0 | 0.0 | 0.9 | 0.00 | 0.02 | 0.02 | 72 | 1009.5 |
| 20260504025527 | 38 | 240 | 0.0 | 0.9 | 0.00 | 0.02 | 0.02 | 73 | 1009.5 |
| 20260504025026 | 38 | 0 | 0.0 | 0.0 | 0.00 | 0.02 | 0.02 | 73 | 1009.5 |
| 20260504024546 | 38 | 0 | 0.0 | 0.0 | 0.00 | 0.02 | 0.02 | 73 | 1009.4 |
| 20260504024027 | 38 | 0 | 0.0 | 0.0 | 0.00 | 0.02 | 0.02 | 73 | 1009.4 |
| 20260504023524 | 38 | 0 | 0.0 | 0.0 | 0.00 | 0.02 | 0.02 | 72 | 1009.4 |
| 20260504023046 | 39 | 0 | 0.0 | 0.0 | 0.00 | 0.02 | 0.02 | 72 | 1009.5 |
| 20260504022531 | 39 | 0 | 0.0 | 0.0 | 0.00 | 0.02 | 0.02 | 71 | 1009.5 |
| 20260504022027 | 39 | 0 | 0.0 | 0.0 | 0.00 | 0.02 | 0.02 | 71 | 1009.4 |
| 20260504021542 | 39 | 0 | 0.0 | 0.0 | 0.00 | 0.02 | 0.02 | 72 | 1009.4 |
| 20260504021024 | 39 | 0 | 0.0 | 0.0 | 0.00 | 0.02 | 0.02 | 71 | 1009.4 |
| 20260504020523 | 39 | 0 | 0.0 | 0.0 | 0.00 | 0.02 | 0.02 | 71 | 1009.4 |
| 20260504020040 | 39 | 0 | 0.0 | 0.0 | 0.00 | 0.02 | 0.02 | 71 | 1009.3 |
| 20260504015527 | 39 | 0 | 0.0 | 0.0 | 0.00 | 0.02 | 0.02 | 69 | 1009.3 |
| 20260504015025 | 40 | 0 | 0.0 | 0.0 | 0.00 | 0.02 | 0.02 | 68 | 1009.3 |
| 20260504014543 | 40 | 0 | 0.0 | 0.0 | 0.00 | 0.02 | 0.02 | 68 | 1009.3 |